Weather History for KLXT - March, 2012

Change the Weather History Date:

Saturday, March 31, 2012

  Actual Average (KMKC) Record (KMKC)
Temperature  
Mean Temperature 70 °F -  
Max Temperature 82 °F 60 °F 84 °F (2012)
Min Temperature 59 °F 40 °F 30 °F (2004)
Cooling Degree Days 6    
Growing Degree Days 20 (Base 50)    
Moisture  
Dew Point 56 °F    
Average Humidity 63    
Maximum Humidity 87    
Minimum Humidity 41    
Precipitation  
Precipitation 0.00 in - - ()
Sea Level Pressure  
Sea Level Pressure 29.78 in    
Wind  
Wind Speed 8 mph (South)    
Max Wind Speed 12 mph    
Max Gust Speed 18 mph    
Visibility 10 miles    
Events      
Averages and records for this station are not official NWS values.
T = Trace of Precipitation, MM = Missing Value Source: NWS Daily Summary

Daily Weather History Graph

Daily Weather History Graph

Search for Another Location

Airport or City:

Trip Planner

Search our weather history database for the weather conditions in past years. The results will help you decide how hot, cold, wet, or windy it might be!

Date:

Astronomy

Mar. 31, 2012 Rise Set
Actual Time 7:02 AM CDT 7:40 PM CDT
Civil Twilight 6:36 AM CDT 8:07 PM CDT
Nautical Twilight 6:04 AM CDT 8:39 PM CDT
Astronomical Twilight 5:31 AM CDT 9:12 PM CDT
Moon 1:12 PM CDT (3/31) 2:56 AM CDT (3/31)
Length of Visible Light 13h 31m
Length of Day
12h 37m
First Quarter, 59% of the Moon is Illuminated
Mar 31
First Quarter
Apr 6
Full
Apr 13
Last Quarter
Apr 21
New
Apr 29
First Quarter

Hourly Weather History & Observations

Time (CDT) Temp. Heat Index Dew Point Humidity Pressure Visibility Wind Dir Wind Speed Gust Speed Precip Events Conditions
12:53 AM 59.0 °F - 53.1 °F 81% 29.82 in 10.0 mi East 8.1 mph - N/A   Clear
1:53 AM 60.1 °F - 55.0 °F 83% 29.81 in 10.0 mi ESE 8.1 mph - N/A   Clear
2:53 AM 61.0 °F - 55.0 °F 81% 29.81 in 10.0 mi ESE 8.1 mph - N/A   Clear
3:53 AM 60.1 °F - 55.0 °F 83% 29.81 in 10.0 mi SE 8.1 mph - N/A   Clear
4:53 AM 59.0 °F - 55.0 °F 87% 29.81 in 10.0 mi ESE 9.2 mph - N/A   Clear
5:53 AM 59.0 °F - 54.0 °F 83% 29.80 in 10.0 mi SE 8.1 mph - N/A   Clear
7:53 AM 60.1 °F - 55.0 °F 83% 29.83 in 10.0 mi SSE 8.1 mph - N/A   Clear
8:53 AM 61.0 °F - 55.0 °F 81% 29.83 in 10.0 mi South 4.6 mph - N/A   Clear
9:53 AM 64.9 °F - 57.0 °F 75% 29.83 in 10.0 mi SSW 5.8 mph - N/A   Clear
10:53 AM 69.1 °F - 59.0 °F 70% 29.83 in 10.0 mi SSW 5.8 mph - N/A   Clear
11:53 AM 75.0 °F - 59.0 °F 57% 29.82 in 10.0 mi SW 8.1 mph - N/A   Clear
12:53 PM 78.1 °F - 55.9 °F 46% 29.80 in 10.0 mi West 5.8 mph - N/A   Clear
1:53 PM 80.1 °F 80.4 °F 57.0 °F 45% 29.78 in 10.0 mi SW 8.1 mph - N/A   Clear
2:53 PM 81.0 °F 81.0 °F 57.0 °F 44% 29.77 in 10.0 mi SSW 9.2 mph - N/A   Clear
3:53 PM 81.0 °F 80.7 °F 55.0 °F 41% 29.75 in 10.0 mi SSW 8.1 mph - N/A   Clear
4:53 PM 82.0 °F 81.6 °F 55.9 °F 41% 29.74 in 10.0 mi SSW 9.2 mph 18.4 mph N/A   Clear
5:53 PM 81.0 °F 80.8 °F 55.9 °F 42% 29.73 in 10.0 mi SSW 11.5 mph - N/A   Clear
6:53 PM 79.0 °F - 55.9 °F 45% 29.73 in 10.0 mi SSW 5.8 mph - N/A   Clear
7:53 PM 77.0 °F - 54.0 °F 45% 29.73 in 10.0 mi South 6.9 mph - N/A   Clear
8:53 PM 75.9 °F - 57.9 °F 54% 29.73 in 10.0 mi South 8.1 mph - N/A   Clear
9:53 PM 72.0 °F - 57.9 °F 61% 29.74 in 10.0 mi South 9.2 mph - N/A   Clear
10:53 PM 72.0 °F - 57.9 °F 61% 29.73 in 10.0 mi South 9.2 mph - N/A   Clear
11:53 PM 70.0 °F - 57.9 °F 65% 29.71 in 10.0 mi South 8.1 mph - N/A   Clear